Location: Altoona
(40.5167°N, 78.4000°W)
Time: 11:44:26
(UTC-05:00)

H-2A R/B - Pass Details

Date: 21 August 2017
Orbit: 734 x 837 km, 98.4° (Epoch: 22 November)

Event Time Altitude Azimuth Distance (km) Brightness Sun altitude
Exits shadow 23:49:06 20° 276° (W) 1,699 4.0 -34.0°
Drops below altitude 10° 23:52:12 10° 314° (NW) 2,276 5.2 -34.2°
Sets 23:55:03 0° 331° (NNW) 3,192 6.3 -34.5°
